Weather History for Harlingen, TX

Change the Weather History Date:

Saturday, September 14, 2013

  Actual Average Record
Temperature  
Mean Temperature 81 °F 82 °F  
Max Temperature 87 °F 92 °F 101 °F (1950)
Min Temperature 74 °F 73 °F 62 °F (1945)
Degree Days  
Heating Degree Days 0 0  
Month to date heating degree days 0 0  
Since 1 July heating degree days 0 0  
Cooling Degree Days 16 17  
Month to date cooling degree days 234 256  
Year to date cooling degree days 3251 3180  
Growing Degree Days 30 (Base 50)    
Moisture  
Dew Point 75 °F    
Average Humidity 80    
Maximum Humidity 94    
Minimum Humidity 65    
Precipitation  
Precipitation 0.20 in 0.20 in 3.61 in (1961)
Month to date precipitation 4.61 2.51  
Year to date precipitation 16.45 16.72  
Sea Level Pressure  
Sea Level Pressure 29.81 in    
Wind  
Wind Speed 8 mph (NE)    
Max Wind Speed 21 mph    
Max Gust Speed 26 mph    
Visibility 9 miles    
Events Rain    
T = Trace of Precipitation, MM = Missing Value Source: NWS Daily Summary

Daily Weather History Graph

Daily Weather History Graph

Search for Another Location

Airport:

Trip Planner

Search our weather history database for the weather conditions in past years. The results will help you decide how hot, cold, wet, or windy it might be!

Date:

Astronomy

Sep. 14, 2013 Rise Set
Actual Time 7:16 AM CDT 7:35 PM CDT
Civil Twilight 6:52 AM CDT 7:58 PM CDT
Nautical Twilight 6:25 AM CDT 8:25 PM CDT
Astronomical Twilight 5:58 AM CDT 8:53 PM CDT
Moon 3:57 PM CDT (9/14) 2:12 AM CDT (9/14)
Length of Visible Light 13h 05m
Length of Day
12h 19m
Waxing Gibbous, 72% of the Moon is Illuminated
Sep 14
Waxing Gibbous
Sep 19
Full
Sep 26
Last Quarter
Oct 4
New
Oct 11
First Quarter

Hourly Weather History & Observations

Time (CDT) Temp. Heat Index Dew Point Humidity Pressure Visibility Wind Dir Wind Speed Gust Speed Precip Events Conditions
12:37 AM 75.2 °F - 73.4 °F 94% 29.81 in 10.0 mi SSE 9.2 mph - N/A   Mostly Cloudy
12:52 AM 75.9 °F - 73.9 °F 94% 29.81 in 8.0 mi Calm Calm - 0.00 in Rain Light Rain
1:52 AM 75.0 °F - 73.0 °F 94% 29.80 in 10.0 mi NNW 4.6 mph - 0.01 in   Clear
2:52 AM 75.0 °F - 73.0 °F 94% 29.79 in 10.0 mi North 3.5 mph - N/A   Clear
3:52 AM 75.0 °F - 73.0 °F 94% 29.78 in 10.0 mi Calm Calm - N/A   Clear
4:52 AM 75.0 °F - 73.0 °F 94% 29.77 in 10.0 mi Calm Calm - N/A   Clear
5:52 AM 75.0 °F - 73.0 °F 94% 29.77 in 10.0 mi NNW 3.5 mph - N/A   Clear
6:52 AM 75.0 °F - 73.9 °F 96% 29.79 in 10.0 mi North 3.5 mph - N/A   Clear
7:52 AM 75.9 °F - 73.9 °F 94% 29.80 in 10.0 mi NNE 3.5 mph - N/A   Clear
8:52 AM 79.0 °F - 75.9 °F 90% 29.81 in 10.0 mi NNE 5.8 mph - N/A   Clear
9:52 AM 81.0 °F 87.3 °F 75.9 °F 85% 29.83 in 10.0 mi NE 9.2 mph - N/A   Clear
10:52 AM 82.9 °F 91.8 °F 77.0 °F 82% 29.83 in 10.0 mi NE 5.8 mph - 0.04 in   Clear
11:52 AM 86.0 °F 96.0 °F 75.9 °F 72% 29.83 in 10.0 mi ENE 17.3 mph - N/A   Scattered Clouds
12:52 PM 84.0 °F 92.6 °F 75.9 °F 76% 29.83 in 10.0 mi East 10.4 mph - 0.00 in   Overcast
1:49 PM 78.8 °F - 73.4 °F 83% 29.81 in 2.5 mi East 12.7 mph 24.2 mph 0.09 in Rain Rain
1:52 PM 80.1 °F 85.1 °F 75.0 °F 85% 29.82 in 4.0 mi East 11.5 mph - 0.09 in Rain Light Rain
2:06 PM 82.4 °F 90.9 °F 77.0 °F 84% 29.81 in 10.0 mi ENE 13.8 mph - 0.00 in   Scattered Clouds
2:52 PM 84.9 °F 93.3 °F 75.0 °F 72% 29.79 in 10.0 mi East 16.1 mph - 0.00 in   Partly Cloudy
3:52 PM 84.9 °F 93.3 °F 75.0 °F 72% 29.78 in 10.0 mi ENE 17.3 mph - N/A   Scattered Clouds
4:52 PM 86.0 °F 93.8 °F 73.9 °F 67% 29.78 in 10.0 mi ENE 18.4 mph - N/A   Partly Cloudy
5:52 PM 84.0 °F 91.2 °F 73.9 °F 72% 29.79 in 10.0 mi ENE 16.1 mph 23.0 mph N/A   Clear
6:52 PM 82.0 °F 87.9 °F 73.9 °F 76% 29.80 in 10.0 mi ENE 9.2 mph - N/A   Clear
7:52 PM 80.1 °F 85.1 °F 75.0 °F 85% 29.81 in 8.0 mi East 11.5 mph 21.9 mph 0.01 in Rain Light Rain
8:52 PM 77.0 °F - 73.9 °F 90% 29.82 in 10.0 mi NNE 5.8 mph - 0.02 in   Clear
9:52 PM 79.0 °F - 75.9 °F 90% 29.83 in 10.0 mi NE 6.9 mph - 0.01 in Rain Light Rain
10:52 PM 79.0 °F - 75.9 °F 90% 29.84 in 10.0 mi NE 8.1 mph - 0.00 in   Clear
11:52 PM 78.1 °F - 75.0 °F 90% 29.83 in 10.0 mi NNE 6.9 mph - N/A   Clear